Flag for Germany Weather past 2 weeks in Heinsberg, North Rhine-Westphalia, Germany

Now
91 °F

Partly sunny.


Feels Like: 93 °F
Forecast: 67 / 85 °F
Wind: 2 mph from West

Location: Maastricht Airport Zuid Limburg

Current Time: Jul 4, 2015 at 4:43:37 PM

Latest Report: Jul 4, 2015 at 4:00 PM


Visibility: 14 mi

Pressure: 30.08 "Hg

Humidity: 42%

Dew point: 65 °F

Location of HeinsbergLocation

Historic Weather in Heinsberg — Graph

°F

Heinsberg temperature yesterday

Maximum temperature yesterday: 90 °F (at 6:00 PM)
Minimum temperature yesterday: 67 °F (at 6:00 AM)
Average temperature yesterday: 78 °F

Past Weeks' High & Low Weather Summary

 TemperatureHumidityPressure
High100 °F (Jul 2, 4:00 PM)99% (Jun 23, 3:00 AM)30.25 "Hg (Jun 23, 3:00 AM)
Low48 °F (Jun 23, 12:00 AM)26% (Jul 2, 4:00 PM)29.74 "Hg (Jun 22, 10:00 PM)
Average68 °F66%30.08 "Hg
* Reported Jun 19 3:00 PM — Jul 4 3:00 PM, Heinsberg, Weather by CustomWeather, © 2015

Note: Actual official high and low records may vary slightly from our data, if they occured in-between our weather recording intervals... More about our weather records

Advertising

Heinsberg weather history for previous 24 hours

 ConditionsComfort  
Time TempWeatherWind HumidityBarometerVisibility
3:00 PM
Sat, Jul 4
94 °FPassing clouds.5 mph38%30.08 "Hg16 mi
2:00 PM94 °FSunny.6 mph37%30.07 "Hg16 mi
1:00 PM92 °FPassing clouds.5 mph37%30.07 "Hg19 mi
12:00 PM89 °FPassing clouds.5 mph46%30.06 "Hg16 mi
11:00 AM88 °FSunny.5 mph50%30.06 "Hg16 mi
10:00 AM87 °FPassing clouds.6 mph50%30.04 "Hg13 mi
9:00 AM82 °FSunny.3 mph62%30.03 "Hg14 mi
8:00 AM80 °FSunny.2 mph69%30.03 "Hg10 mi
7:00 AM78 °FSunny.2 mph72%30.02 "Hg10 mi
6:00 AM77 °FSunny.5 mph74%30.02 "Hg11 mi
5:00 AM76 °FPassing clouds.6 mph75%30.03 "Hg10 mi
4:00 AM77 °FClear.5 mph74%30.05 "Hg9 mi
3:00 AM77 °FPassing clouds.5 mph72%30.07 "Hg11 mi
2:00 AM77 °FClear.5 mph74%30.09 "Hg10 mi
1:00 AM78 °FPassing clouds.5 mph70%30.11 "Hg10 mi
12:00 AM78 °FClear.5 mph71%30.12 "Hg12 mi
11:00 PM
Fri, Jul 3
80 °FClear.5 mph65%30.13 "Hg16 mi
10:00 PM82 °FPassing clouds.6 mph62%30.14 "Hg14 mi
9:00 PM85 °FSunny.6 mph56%30.14 "Hg12 mi
8:00 PM87 °FSunny.5 mph49%30.14 "Hg15 mi
7:00 PM89 °FSunny.5 mph48%30.15 "Hg16 mi
6:00 PM90 °FSunny.3 mph47%30.16 "Hg15 mi
5:00 PM89 °FSunny.2 mph48%30.17 "Hg14 mi
4:00 PM89 °FSunny.3 mph46%30.19 "Hg13 mi
Weather by CustomWeather, © 2015

See weather overviewHow to use our weather pages